Location: Unspecified
(0.0000°N, 0.0000°E)
Time: 13:30:23
(UTC+00:00)

ISS - Pass Details

Date: 16 April 2021
Orbit: 418 x 422 km, 51.6° (Epoch: 16 April)

Event Time Altitude Azimuth Distance (km) Brightness Sun altitude
Exits shadow 05:02:32 - 194° (SSW) 1,936 -0.6 -14.1°
Reaches altitude 10° 05:03:44 10° 186° (S) 1,497 -1.1 -13.8°
Maximum altitude 05:06:39 27° 126° (SE) 837 -1.8 -13.1°
Drops below altitude 10° 05:09:33 10° 65° (ENE) 1,493 0.4 -12.4°
Sets 05:11:50 0° 53° (NE) 2,354 1.3 -11.8°
